Home > Weather > Santa Ana > Past weeks

Flag for El Salvador Past Weather in Santa Ana, El Salvador — Yesterday and Last 2 Weeks

Now
82 °F

Passing clouds.


Feels Like: 87 °F
Forecast: 66 / 86 °F
Wind: 3 mph from North

Location: San Salvador / Ilopango

Current Time: Jun 28, 2016 at 4:43:34 PM

Latest Report: Jun 28, 2016 at 3:50 PM


Visibility: N/A

Pressure: 29.92 "Hg (27.79 "Hg at 650m altitude)

Humidity: 70%

Dew Point: 72 °F

Location of Santa AnaLocation

Past Weather in Santa Ana — Graph

°F

Santa Ana Temperature Yesterday

Maximum temperature yesterday: 88 °F (at 1:50 PM)
Minimum temperature yesterday: 66 °F (at 5:50 AM)
Average temperature yesterday: 75 °F

High & Low Weather Summary for the Past Weeks

 TemperatureHumidityPressure
High91 °F (Jun 20, 2:50 PM)100% (Jun 16, 6:50 AM)30.12 "Hg (Jun 16, 6:50 AM)
Low66 °F (Jun 26, 5:50 AM)55% (Jun 21, 3:50 PM)29.89 "Hg (Jun 27, 3:50 PM)
Average78 °F81%30.01 "Hg
* Reported Jun 13 2:50 PM — Jun 28 2:50 PM, Santa Ana, Weather by CustomWeather, © 2016

Note: Actual official high and low records may vary slightly from our data, if they occured in-between our weather recording intervals... More about our weather records

Advertising

Santa Ana Weather History for the Previous 24 Hours

Scroll right to see more
 ConditionsComfort  
Time TempWeatherWind HumidityBarometerVisibility
2:50 PM
Tue, Jun 28
82 °FSunny.5 mph70%29.95 "Hg10 mi
1:50 PM82 °FSunny.5 mph70%29.98 "Hg10 mi
12:50 PM82 °FSunny.5 mph70%29.98 "Hg10 mi
11:50 AM81 °FSunny.7 mph74%30.01 "Hg10 mi
10:50 AM79 °FSunny.6 mph74%30.01 "Hg10 mi
9:50 AM81 °FSunny.6 mph74%30.01 "Hg10 mi
8:50 AM75 °FSunny.7 mph83%30.01 "Hg10 mi
7:50 AM73 °FSunny.6 mph89%30.01 "Hg10 mi
6:50 AM70 °FSunny.No wind100%29.98 "Hg10 mi
5:50 AM70 °FSunny.3 mph94%29.95 "Hg10 mi
11:50 PM
Mon, Jun 27
72 °FClear.No wind94%29.98 "Hg10 mi
10:50 PM72 °FClear.3 mph94%30.01 "Hg10 mi
9:50 PM72 °FClear.No wind94%30.01 "Hg10 mi
8:50 PM72 °FPassing clouds.No wind94%29.98 "HgN/A
7:50 PM72 °FPassing clouds.No wind94%29.95 "HgN/A
6:50 PM70 °FPassing clouds.No wind100%29.95 "HgN/A
5:50 PM70 °FScattered clouds.3 mph94%29.92 "HgN/A
4:50 PM68 °FThunderstorms. Scattered clouds.8 mph94%29.92 "Hg1 mi
Weather by CustomWeather, © 2016

See weather overviewHow to use our weather pages